Wetbulb
63.09 62.24 62.29 62.79 62.40 67.03 67.37 68.27 68.49 68.84 68.60 68.42 68.06 67.38 66.99 66.66 66.10 65.57 64.50 63.63 62.75 61.83 61.87 61.93 61.78 61.40 62.48 61.55 60.60 60.16 55.51 55.95
63.04 61.71 61.15 60.99 60.81 62.09 62.70 65.46 67.72 67.58 67.30 67.08 66.46 66.30 65.97 65.76 64.88 64.51 64.15 63.09 62.30 61.81 61.50 61.21 60.70 61.14 62.03 60.92 60.35 59.16 54.50 54.41
62.05 61.26 60.78 60.63 61.42 60.87 60.44 62.31 65.82 66.34 65.96 65.82 64.32 63.57 62.80 61.94 63.50 63.66 63.28 62.47 61.70 61.25 60.54 59.57 57.73 59.38 61.28 60.45 58.90 54.91 54.23 54.78
60.81 60.30 60.09 60.52 61.44 61.10 60.08 63.20 62.98 63.13 63.40 62.58 62.48 61.71 61.13 61.64 62.77 62.76 62.59 61.84 60.93 60.19 59.44 58.42 54.81 49.42 51.70 55.74 53.57 54.47 54.81 54.95
59.65 59.37 59.75 59.79 59.50 59.86 61.00 61.77 61.26 60.85 60.53 61.47 61.47 61.47 60.76 59.82 59.30 58.63 57.63 58.04 54.70 54.28 53.31 52.14 50.46 48.73 48.46 49.57 52.46 54.13 54.43 55.24
59.53 59.29 59.13 59.01 59.66 59.39 59.45 60.24 59.69 59.74 60.41 60.84 59.89 58.84 57.58 56.78 56.14 55.05 53.83 52.19 52.95 52.80 52.03 50.44 49.59 49.02 48.08 48.60 49.54 51.35 53.00 54.82
57.98 58.20 58.04 57.64 57.35 57.39 58.66 59.42 60.06 59.87 59.52 59.64 58.88 57.51 56.04 55.45 53.96 53.52 52.70 51.71 52.88 52.75 51.37 50.42 49.42 48.79 48.10 48.05 47.40 48.96 51.83 53.80
58.11 57.72 58.11 58.52 58.00 58.11 58.99 59.50 59.97 60.16 59.36 58.51 57.87 56.85 56.16 54.93 53.19 52.81 52.89 52.92 54.27 52.81 52.02 50.55 49.13 47.78 46.83 47.56 47.91 47.20 48.97 51.68
56.61 57.15 57.86 57.78 57.98 57.76 58.15 58.70 59.96 59.56 59.59 59.36 58.55 57.47 56.43 55.23 53.70 53.34 53.67 54.90 54.18 52.52 51.84 51.47 49.20 48.77 47.63 47.40 47.78 48.30 48.78 49.39
56.57 57.43 56.86 56.57 56.45 56.03 56.64 55.70 56.68 58.29 59.66 59.82 59.49 58.76 57.32 55.95 55.57 55.16 55.96 55.30 54.29 52.91 52.47 51.35 49.29 48.36 46.92 47.05 46.54 47.23 48.24 48.90
55.75 55.76 55.51 55.79 55.66 55.80 55.36 54.88 55.16 55.49 59.00 58.68 58.70 58.96 58.77 57.18 57.37 57.31 56.45 55.51 54.01 53.60 51.79 51.76 50.01 48.81 47.70 46.25 45.78 45.67 45.90 48.37
55.67 55.30 54.97 54.67 54.81 54.80 54.23 55.20 56.01 56.45 56.55 57.78 57.60 57.61 59.43 58.33 57.76 57.24 55.96 55.39 53.66 53.14 52.09 51.85 52.20 50.73 50.90 48.16 45.82 45.65 45.00 45.01
55.12 54.74 53.92 53.26 52.67 53.17 53.19 52.36 54.09 55.63 55.17 56.38 58.24 58.22 59.93 58.17 57.41 57.57 56.48 55.11 54.47 53.02 51.79 51.18 50.82 50.66 48.72 48.02 48.02 46.99 45.26 44.73
53.40 53.29 53.28 53.64 53.72 53.50 52.93 51.20 52.95 54.60 55.20 55.95 57.58 58.91 59.17 59.31 58.97 58.08 57.46 55.67 54.02 52.89 51.94 50.62 50.66 51.35 48.19 47.83 44.91 46.34 47.40 47.08
53.27 53.16 53.26 53.63 53.66 52.84 52.21 52.93 54.15 54.23 55.19 55.64 56.34 59.01 59.71 59.04 58.53 58.82 59.02 57.40 54.88 53.88 53.45 51.62 50.00 51.83 50.44 49.00 45.13 44.65 45.39 47.39
53.82 53.59 53.31 53.74 53.81 52.56 51.80 52.07 51.84 53.83 54.56 55.61 55.39 58.60 59.21 59.98 59.53 58.92 58.40 58.47 56.01 54.31 54.17 52.56 51.87 50.36 51.46 49.66 47.22 46.05 43.46 43.64
53.97 53.91 53.51 53.80 53.20 53.00 52.27 52.83 54.14 55.65 55.81 55.29 55.04 57.46 59.51 59.77 59.75 59.29 59.35 58.74 57.07 56.17 53.34 52.86 52.83 51.20 50.97 47.72 46.66 46.86 46.52 44.69
53.76 53.66 53.60 53.80 53.57 53.15 53.01 53.35 54.72 55.10 54.60 54.38 55.18 56.79 58.97 59.37 59.30 58.60 57.51 57.03 55.71 55.13 54.21 53.15 51.50 51.72 50.95 48.20 47.09 46.17 44.96 44.46
53.12 53.61 53.64 54.37 53.90 54.54 54.89 55.42 55.67 54.85 54.46 54.57 54.66 56.11 57.46 58.74 57.69 57.31 57.07 57.09 56.29 53.56 52.44 52.05 51.56 51.07 49.29 47.32 47.32 47.11 45.76 44.97
53.30 53.79 53.81 54.65 54.37 54.48 55.83 56.56 56.55 56.27 56.02 56.18 55.97 56.57 57.94 59.65 58.52 57.77 57.29 55.63 54.00 52.24 52.18 51.91 50.34 48.71 48.03 47.32 45.56 45.61 46.27 45.53
MSLP
1012.73 1013.15 1013.50 1015.22 1014.31 1012.24 1013.76 1013.73 1014.70 1015.58 1016.75 1017.38 1017.67 1017.67 1018.30 1018.72 1019.36 1019.69 1020.10 1020.71 1021.06 1021.36 1021.63 1022.04 1022.28 1022.52 1022.84 1023.30 1023.38 1023.60 1023.85 1024.26
1013.12 1013.89 1014.77 1012.97 1015.12 1014.44 1015.73 1015.42 1014.95 1015.97 1016.90 1017.59 1018.12 1018.02 1018.91 1019.26 1019.93 1019.93 1020.38 1021.02 1021.34 1021.74 1021.87 1022.11 1022.47 1022.54 1022.86 1023.42 1023.80 1024.13 1024.27 1024.60
1012.78 1013.24 1013.53 1014.05 1013.92 1016.96 1015.52 1016.90 1016.38 1016.42 1017.10 1017.73 1018.29 1018.56 1019.18 1019.90 1020.37 1020.29 1020.50 1021.14 1021.75 1021.87 1022.16 1022.39 1022.70 1023.10 1023.35 1023.65 1024.05 1024.53 1024.70 1024.83
1014.07 1013.64 1013.90 1014.39 1015.13 1016.09 1016.44 1017.26 1017.22 1016.82 1017.23 1017.65 1018.29 1019.00 1019.40 1020.00 1020.70 1020.65 1020.86 1021.24 1022.01 1022.18 1022.43 1022.62 1023.07 1023.74 1023.91 1024.01 1024.59 1024.87 1025.07 1025.22
1014.74 1014.74 1014.60 1014.76 1015.27 1016.20 1017.35 1016.07 1016.68 1016.97 1017.60 1018.09 1018.76 1019.33 1020.03 1020.34 1020.97 1020.80 1021.42 1021.49 1022.25 1022.44 1023.03 1023.36 1023.64 1024.04 1024.27 1024.46 1024.87 1025.19 1025.24 1025.45
1014.97 1015.12 1015.31 1015.75 1016.29 1016.80 1016.74 1016.31 1016.86 1016.84 1017.22 1018.29 1019.05 1019.75 1020.42 1020.69 1020.86 1021.10 1021.38 1022.15 1022.36 1022.97 1023.27 1023.86 1024.16 1024.27 1024.45 1024.66 1025.25 1025.41 1025.52 1025.58
1015.02 1015.28 1015.50 1015.85 1016.40 1016.44 1016.33 1016.39 1016.31 1016.90 1017.75 1018.50 1018.95 1019.58 1020.46 1020.65 1021.13 1021.04 1021.45 1022.30 1022.50 1023.04 1023.64 1024.15 1024.32 1024.25 1024.65 1024.96 1025.46 1025.63 1025.71 1025.81
1015.02 1015.48 1015.62 1015.74 1016.10 1015.81 1015.90 1016.27 1016.73 1017.37 1018.13 1018.59 1018.82 1019.53 1020.29 1020.89 1020.95 1021.27 1021.81 1022.24 1022.38 1022.91 1023.49 1023.77 1024.24 1024.39 1024.80 1024.99 1025.42 1025.65 1025.85 1025.93
1015.19 1015.28 1015.58 1015.90 1016.38 1016.46 1016.70 1016.82 1016.99 1017.50 1018.19 1018.52 1018.86 1019.61 1020.22 1020.57 1021.17 1021.47 1021.97 1022.23 1022.34 1022.96 1023.48 1023.81 1024.32 1024.51 1024.78 1024.86 1025.27 1025.48 1025.96 1026.04
1015.75 1015.77 1016.03 1016.28 1016.81 1017.09 1017.16 1017.13 1017.17 1017.68 1018.43 1018.90 1019.04 1019.60 1019.98 1020.80 1020.95 1021.59 1021.80 1021.99 1022.36 1023.00 1023.40 1023.96 1024.31 1024.67 1024.77 1024.96 1024.98 1025.34 1025.63 1025.99
1016.09 1016.24 1016.58 1016.96 1017.27 1017.14 1017.48 1017.71 1017.66 1018.17 1018.55 1018.92 1018.90 1019.40 1020.16 1020.44 1020.84 1021.03 1021.38 1021.81 1022.25 1022.68 1023.24 1023.59 1024.29 1024.57 1024.68 1024.92 1025.25 1025.28 1025.37 1025.59
1016.21 1016.43 1016.63 1017.06 1017.39 1017.62 1017.84 1018.05 1017.81 1018.13 1018.19 1018.21 1018.78 1019.36 1019.88 1020.22 1020.40 1020.75 1020.94 1021.68 1022.22 1022.58 1022.93 1023.32 1023.60 1023.96 1024.41 1024.72 1024.90 1025.00 1025.21 1025.32
1016.32 1016.53 1016.89 1017.16 1017.53 1017.86 1018.13 1018.03 1017.97 1018.10 1018.46 1018.54 1019.16 1019.53 1019.75 1019.95 1019.95 1020.25 1020.79 1021.40 1021.68 1022.10 1022.79 1023.19 1023.56 1023.77 1024.34 1024.88 1024.82 1024.97 1025.12 1025.19
1016.55 1016.76 1017.10 1017.31 1017.35 1017.56 1017.83 1017.86 1018.13 1018.26 1018.13 1018.61 1019.08 1019.29 1019.36 1019.31 1019.50 1020.04 1020.53 1021.17 1021.59 1021.95 1022.41 1023.06 1023.36 1023.64 1024.15 1024.74 1025.12 1025.34 1025.14 1025.29
1015.96 1016.37 1016.62 1016.90 1017.06 1017.34 1017.70 1018.05 1018.24 1018.22 1018.29 1018.27 1018.73 1018.73 1018.68 1018.84 1019.22 1019.70 1019.87 1020.62 1021.21 1021.51 1021.92 1022.42 1022.94 1023.41 1023.64 1024.21 1025.01 1025.06 1025.26 1025.08
1015.34 1015.89 1016.40 1016.74 1017.08 1017.28 1017.52 1017.57 1017.67 1017.62 1017.76 1018.22 1018.30 1018.35 1018.57 1018.60 1018.76 1019.17 1019.50 1019.97 1020.42 1020.94 1021.29 1021.93 1022.55 1023.33 1023.96 1024.25 1024.51 1025.01 1025.38 1025.53
1014.96 1015.56 1015.93 1015.98 1016.23 1016.50 1016.86 1016.99 1017.14 1017.20 1017.54 1017.73 1017.85 1018.04 1018.09 1018.24 1018.46 1018.63 1018.97 1019.46 1019.90 1020.45 1020.93 1021.56 1022.02 1022.57 1023.05 1024.28 1024.81 1025.07 1025.09 1025.40
1014.32 1014.81 1015.11 1015.52 1015.80 1016.18 1016.38 1016.62 1016.83 1016.94 1017.17 1017.57 1017.68 1017.76 1017.87 1017.84 1018.05 1018.32 1018.70 1019.15 1019.55 1019.88 1020.46 1021.20 1021.60 1022.02 1022.65 1023.46 1023.66 1024.27 1024.72 1024.94
1013.50 1013.91 1014.21 1014.61 1015.13 1015.48 1015.84 1016.09 1016.19 1016.38 1016.52 1016.73 1017.01 1017.19 1017.35 1017.56 1017.77 1018.10 1018.52 1018.80 1019.14 1019.66 1020.39 1020.89 1021.25 1021.86 1022.42 1023.10 1023.28 1023.40 1023.64 1024.08
1012.33 1012.77 1013.28 1013.63 1014.14 1014.62 1015.10 1015.27 1015.56 1015.54 1015.81 1015.78 1016.25 1016.32 1016.37 1016.55 1016.84 1017.38 1017.85 1018.24 1019.16 1019.67 1020.18 1020.69 1021.16 1021.75 1022.35 1022.65 1023.07 1023.43 1023.65 1023.96
Wind_Speed
15 17 22 22 13 19 19 23 23 22 23 24 22 22 22 22 21 20 19 16 14 14 14 13 14 16 18 17 17 17 10 7
5 11 16 19 13 25 16 13 20 22 23 22 20 22 20 20 19 20 18 15 13 12 12 13 15 17 21 19 15 13 8 7
7 7 17 18 16 14 17 5 15 22 22 22 16 10 12 12 15 18 17 15 11 13 13 13 14 17 19 18 13 5 6 4
8 10 13 17 12 15 14 9 7 10 12 12 10 10 9 11 12 16 15 16 13 13 12 11 11 5 4 10 4 5 4 4
8 10 12 15 14 9 5 5 7 8 10 10 10 9 7 6 5 5 5 11 4 7 5 4 6 5 5 5 5 4 3 3
12 11 11 12 9 9 8 7 7 7 11 12 9 6 6 6 5 6 5 4 6 4 4 5 4 6 6 7 5 4 3 3
10 12 10 9 10 7 6 4 6 8 9 9 9 9 7 5 4 4 6 4 5 5 5 4 4 6 6 6 5 5 5 2
10 12 8 9 7 8 4 4 8 8 7 8 9 8 7 6 5 4 4 4 4 5 5 5 4 4 4 6 5 5 5 5
7 12 9 11 8 6 4 6 9 8 6 8 10 8 7 6 5 4 4 4 6 5 3 4 4 2 5 4 5 6 5 5
8 9 10 9 10 5 4 4 5 5 7 6 10 8 7 6 5 5 5 4 5 4 4 3 4 4 4 4 4 5 6 6
8 10 13 11 6 6 4 3 4 4 4 5 7 7 7 6 5 5 6 4 5 5 3 4 4 3 4 4 4 4 6 5
9 7 11 9 5 4 2 1 2 1 2 3 4 4 6 6 5 6 6 5 4 3 4 3 4 5 5 5 5 4 4 5
11 10 7 7 6 8 7 7 2 1 2 3 5 5 7 6 5 5 5 7 7 7 4 5 4 2 3 1 2 4 4 4
10 10 10 9 8 7 6 4 2 2 3 4 6 8 8 7 6 6 6 4 5 6 5 3 2 4 4 2 2 3 2 4
14 13 12 11 11 7 3 2 3 3 6 6 6 8 8 8 8 7 8 6 6 7 6 7 4 2 2 4 2 4 1 1
15 15 16 14 13 12 13 11 11 10 9 7 4 7 8 9 9 9 7 6 6 7 5 5 5 5 3 4 4 2 3 1
14 15 16 17 15 14 12 11 9 6 6 7 7 6 9 10 10 9 9 6 5 8 6 5 4 4 4 3 2 2 2 3
16 18 17 18 17 16 16 14 11 9 8 8 8 7 8 10 10 8 6 7 8 7 6 7 6 4 3 4 3 4 3 3
17 19 19 19 18 17 16 15 15 12 12 11 10 8 5 9 9 8 6 6 5 5 6 6 7 7 7 5 3 4 4 3
21 21 21 20 19 19 16 18 11 12 13 11 9 10 10 10 11 9 8 7 5 5 5 5 7 5 7 6 4 3 3 2
Wind_Direction
95 108 86 63 348 139 127 131 141 136 133 132 125 118 118 115 114 110 106 103 98 92 88 84 81 89 111 109 106 105 103 103
144 125 123 89 77 43 39 125 132 131 125 118 113 113 113 113 114 111 108 105 97 90 85 73 68 78 120 118 111 103 98 102
107 117 109 118 117 152 125 273 104 110 117 113 109 110 112 109 120 117 116 108 99 84 74 61 61 70 111 115 110 113 107 107
111 116 126 132 134 137 140 183 133 115 117 121 112 120 121 121 123 116 112 108 100 79 60 46 61 73 87 99 103 108 114 113
122 124 131 137 140 148 175 145 132 125 117 119 126 119 119 117 122 113 112 103 88 80 65 63 76 83 77 96 97 109 123 126
139 146 144 144 152 156 157 142 141 132 133 129 131 120 125 127 137 133 119 109 103 109 90 90 91 82 96 104 116 130 128 132
140 144 148 147 157 158 152 141 123 123 132 140 142 134 146 123 149 133 115 138 121 109 126 134 98 91 86 107 135 138 135 141
142 150 144 144 164 152 125 118 134 134 139 142 130 133 141 157 130 139 135 141 147 138 156 130 123 117 110 118 138 147 157 164
140 137 136 140 147 126 140 139 141 134 132 138 127 141 156 141 152 138 177 161 134 124 122 115 128 151 157 145 130 146 166 171
145 144 143 142 137 141 123 107 111 119 135 149 145 156 139 154 142 173 182 151 143 162 151 149 170 182 163 175 156 154 163 178
132 148 145 138 131 126 126 98 106 120 137 164 146 142 168 157 178 180 164 150 156 164 155 151 169 189 189 177 191 180 177 166
143 148 136 132 129 112 121 15 16 129 105 132 137 184 175 177 170 164 150 155 163 166 160 182 163 178 192 191 199 200 192 178
168 161 156 150 151 158 180 193 246 307 207 183 196 204 203 185 170 152 166 176 182 175 162 187 214 150 110 299 208 221 228 222
179 176 170 181 172 177 186 177 230 226 239 206 210 208 192 184 180 185 181 161 166 179 172 134 182 184 158 124 200 326 283 221
185 185 183 186 187 174 170 126 287 219 233 231 213 202 194 192 189 173 198 167 191 192 179 171 186 178 180 146 139 199 348 151
189 187 189 193 190 189 192 198 202 214 221 230 223 202 205 200 195 193 185 187 186 191 180 178 144 176 106 80 86 166 151 286
192 191 195 198 194 196 196 203 209 211 212 215 222 212 210 207 205 199 201 194 193 190 169 176 172 157 152 154 152 157 119 138
192 192 199 201 198 201 202 206 213 213 213 217 222 213 209 208 206 202 193 180 182 177 168 178 176 142 139 157 173 162 180 155
193 194 201 201 202 206 211 217 219 218 210 210 206 205 203 208 192 187 181 188 183 160 166 170 163 172 166 162 172 186 149 148
195 196 202 204 206 211 216 222 227 223 220 218 213 210 213 194 191 183 180 172 184 166 159 156 152 149 165 179 167 149 123 122